Temperature
16 16 16 16 16 16 16 16 16 16 16 16 16 16 16 16 16 16 16 16 16 16 16 16 16 16 16 16 16 16 16 16 17 16 16 16 16 17 17 17 17 17 17
17 16 16 16 16 16 16 16 16 16 16 16 16 16 16 16 16 16 16 16 16 16 16 16 16 16 16 16 16 16 16 16 16 16 16 16 16 17 17 17 17 17 17
17 16 16 16 16 16 16 16 16 16 15 15 15 15 15 15 15 15 15 15 16 16 16 16 16 16 16 16 16 16 16 16 16 16 16 16 16 16 17 16 17 17 17
16 16 16 16 16 16 16 16 16 15 15 15 15 15 15 15 15 15 15 15 15 15 15 15 15 16 16 16 15 15 16 16 16 16 16 16 16 16 16 16 16 16 16
16 16 16 16 16 16 16 15 15 15 15 15 15 15 15 15 15 15 15 15 15 15 15 15 15 15 15 15 15 15 15 15 16 16 16 16 16 16 16 16 16 16 16
16 16 16 16 16 15 15 15 15 15 15 15 15 15 15 15 15 15 15 15 14 14 14 14 15 15 15 15 15 15 15 15 15 15 16 16 16 16 16 16 16 16 16
16 16 16 16 15 15 15 15 15 15 15 15 15 15 15 15 15 15 15 14 14 14 14 14 14 14 15 15 15 15 15 15 15 15 15 15 15 15 16 16 15 15 15
16 16 16 15 15 15 15 15 15 15 15 15 15 15 15 15 15 15 15 14 14 14 14 14 14 14 14 15 15 15 15 15 15 15 15 15 15 15 15 15 15 15 15
16 16 16 15 15 15 15 15 15 15 15 15 15 15 15 15 15 14 14 14 14 14 14 14 14 14 14 15 15 15 15 15 15 15 15 15 15 15 15 15 15 15 15
16 15 15 15 15 15 15 15 15 15 15 15 15 15 15 15 15 14 14 14 14 14 14 14 14 14 14 14 14 14 15 15 14 14 14 15 14 14 14 14 14 14 14
16 15 15 15 15 15 15 15 15 15 15 15 15 15 15 15 15 15 14 14 14 14 14 14 14 14 14 14 14 14 14 14 14 14 14 14 14 14 14 14 14 14 14
16 16 15 15 15 15 15 15 15 15 15 15 15 15 15 15 15 15 15 14 14 14 14 14 14 14 14 14 14 14 14 14 14 14 14 14 14 14 14 14 14 14 14
16 16 15 15 15 15 15 15 15 15 15 15 15 15 15 14 14 15 15 14 14 14 14 14 14 14 14 14 14 14 14 14 14 14 14 14 14 14 14 13 14 14 14
16 16 15 15 15 15 15 15 15 15 15 15 14 14 14 14 14 14 14 14 14 14 14 14 14 14 13 13 13 14 14 13 13 13 13 13 13 13 13 13 13 13 13
16 16 16 16 15 15 15 15 15 15 15 15 14 14 14 14 14 14 14 14 14 14 14 14 13 13 13 13 13 13 13 13 13 13 13 13 13 13 13 13 13 13 13
16 16 16 16 16 15 15 15 15 15 15 15 15 15 14 14 14 14 14 14 14 14 14 14 13 13 13 13 13 13 13 13 13 13 13 13 13 13 13 13 13 13 13
16 16 16 16 15 15 15 15 15 15 15 15 14 15 14 14 14 14 14 14 14 14 14 14 13 13 13 13 13 13 13 13 13 13 13 13 13 13 13 13 13 13 12
16 16 16 16 15 15 15 15 15 15 15 14 14 14 14 14 14 14 14 14 14 14 13 13 13 13 13 13 13 13 13 13 13 13 13 13 13 12 12 12 12 12 12
16 16 16 16 15 15 15 15 15 15 15 14 14 14 14 14 14 14 14 14 14 14 13 13 13 13 13 13 13 13 13 13 12 12 12 12 12 12 12 12 12 12 12
16 16 16 16 15 15 15 15 15 15 15 15 14 14 14 14 14 14 14 14 14 14 13 13 13 13 13 13 13 13 12 12 12 12 12 12 12 12 12 12 11 11 11
16 16 16 16 15 15 15 15 15 15 15 15 14 14 14 14 14 14 14 14 14 13 13 13 13 12 12 12 12 12 12 12 12 12 11 11 11 11 11 11 11 11 11
16 15 15 15 15 15 15 15 15 15 15 15 14 14 14 14 14 14 14 13 13 13 13 13 12 12 12 12 12 12 12 11 11 11 11 11 11 11 11 11 11 11 10
15 15 15 15 15 15 15 15 15 15 14 14 14 14 14 14 14 14 13 13 13 13 13 12 12 12 12 12 12 11 11 11 11 11 11 11 11 11 10 10 10 10 10
15 15 15 15 15 15 15 15 15 14 14 14 14 14 14 14 13 13 13 13 13 12 12 12 12 12 12 11 11 11 11 11 10 10 10 10 10 10 10 10 10 10 9
15 15 15 15 15 15 15 15 14 14 14 14 13 13 13 13 13 13 13 13 12 12 12 12 11 11 11 11 11 10 10 10 10 10 10 9 9 9 10 10 9 9 9
15 15 15 15 15 15 14 14 14 14 13 13 13 13 13 13 13 12 12 12 12 12 12 11 11 11 11 10 10 10 10 9 9 9 9 9 9 8 8 9 9 8 8
Wind_Speed
2 2 3 4 4 5 4 3 4 5 5 6 8 8 8 9 9 10 10 12 12 12 12 13 12 12 12 12 11 11 11 10 9 8 8 7 7 6 5 5 5 5 5
3 2 3 3 4 4 5 5 5 4 4 5 6 8 8 8 8 10 10 11 13 13 14 14 14 13 12 12 12 12 12 12 11 9 9 9 8 7 5 5 6 6 6
6 5 3 3 4 6 6 6 6 5 5 5 6 6 7 8 7 8 10 10 11 13 14 15 14 14 14 14 13 13 13 14 13 11 11 11 10 9 8 7 7 7 7
8 6 3 3 5 7 5 4 4 5 5 5 5 5 5 6 7 8 9 10 9 10 12 14 14 15 15 15 15 15 14 14 14 13 13 13 12 12 10 9 8 8 8
8 7 3 3 6 5 3 4 5 4 4 4 4 4 4 4 5 7 7 9 10 10 10 11 13 15 15 16 16 16 15 14 14 14 14 13 13 12 12 11 10 10 10
7 6 4 5 6 4 4 4 4 3 2 2 4 5 3 3 4 5 5 7 8 9 9 9 10 11 14 15 15 16 16 15 14 14 13 13 13 13 12 12 11 11 11
6 6 4 4 4 4 4 4 3 3 2 2 2 2 3 4 4 3 4 4 6 8 9 10 9 9 10 13 14 15 15 15 14 14 14 13 13 13 13 12 12 12 12
6 4 4 3 3 3 4 4 3 2 1 1 1 1 2 2 3 3 3 3 4 6 7 9 10 10 10 10 12 14 14 14 14 13 13 13 13 13 13 13 12 12 11
6 6 5 4 3 3 3 2 2 2 1 2 2 2 2 1 0 2 3 3 4 4 4 7 9 10 11 11 10 12 14 13 13 13 12 12 12 12 12 12 12 11 11
5 5 5 4 3 4 4 2 3 2 2 2 2 2 2 2 2 1 1 2 3 4 4 5 7 9 10 11 11 12 13 13 12 12 12 12 11 11 11 11 11 11 11
4 4 4 4 3 3 3 3 3 3 2 2 2 2 3 2 1 2 1 0 1 2 2 3 5 6 8 9 9 10 11 12 12 12 12 12 12 12 11 11 11 10 10
2 3 3 3 3 3 3 2 2 3 2 3 2 2 2 2 2 1 1 1 1 1 2 3 3 4 6 7 7 9 10 11 11 12 12 12 12 11 11 10 10 9 9
2 2 3 2 3 3 4 3 2 2 2 2 2 2 2 2 2 2 2 1 1 1 1 1 2 3 4 5 6 6 8 9 10 10 11 11 11 11 10 10 9 9 8
3 3 3 4 4 4 4 3 2 2 2 2 3 2 2 2 2 2 1 1 1 1 1 1 1 3 4 4 4 4 5 6 7 8 8 9 9 9 9 9 9 9 8
3 4 4 4 4 4 3 3 2 2 3 3 2 2 2 2 2 2 2 2 2 1 1 0 1 1 3 4 3 3 3 4 4 5 5 6 7 7 7 7 7 8 8
3 3 3 4 4 3 3 3 2 2 2 2 2 3 3 2 2 2 2 2 2 1 1 1 0 1 2 2 2 1 2 2 1 1 2 3 4 5 5 5 6 6 7
3 3 2 3 3 3 3 3 1 1 1 1 2 3 3 3 2 2 2 2 2 2 1 2 1 1 2 1 1 1 1 2 2 2 1 1 2 3 3 3 4 5 5
3 3 3 2 2 2 2 3 2 1 1 1 1 2 2 2 2 2 2 2 2 2 2 1 2 2 2 1 1 1 2 2 2 3 4 3 3 3 3 2 3 4 4
3 2 3 3 2 2 2 2 2 2 1 1 2 2 2 2 2 1 1 2 1 2 1 1 1 1 1 1 1 2 2 2 3 3 5 5 6 5 5 5 4 5 5
2 2 3 3 3 2 2 1 1 1 1 1 2 3 3 3 2 2 2 2 2 2 2 1 1 2 1 1 1 2 3 3 3 3 3 4 6 7 7 7 6 7 7
2 1 2 3 3 2 1 2 1 1 1 2 2 3 4 4 5 4 3 2 2 2 1 1 1 2 2 2 1 1 2 3 3 1 2 3 3 4 6 8 8 8 9
2 1 2 3 3 2 4 4 3 2 1 1 2 2 3 4 3 3 3 2 2 1 1 1 1 2 3 2 2 2 2 3 4 3 2 3 2 2 5 6 7 9 9
2 2 2 3 3 2 3 2 2 1 0 1 1 1 1 2 3 1 0 1 1 1 2 1 0 2 2 2 2 2 3 3 3 3 2 4 3 3 5 6 7 8 8
3 3 3 3 3 2 2 1 2 1 1 1 1 1 2 2 3 2 1 1 1 1 2 2 2 2 1 1 1 2 2 3 4 3 2 3 3 4 5 6 7 6 7
3 3 3 3 4 2 2 1 0 1 0 1 2 3 3 2 4 4 2 1 2 2 2 1 2 3 3 4 3 2 3 3 4 4 2 2 3 4 4 3 6 8 8
4 4 3 3 4 3 3 3 2 0 0 0 2 3 4 3 4 4 2 2 2 3 3 4 3 3 3 3 3 0 1 1 3 3 3 2 3 3 4 3 4 7 8
Wind_Direction
70 75 87 81 76 77 78 57 61 57 56 50 56 60 65 70 81 86 80 71 63 56 51 50 54 54 54 51 48 45 39 37 39 40 34 30 27 25 32 39 46 50 56
77 63 73 72 70 67 69 74 71 62 63 61 56 59 57 62 75 89 89 78 68 63 58 54 56 55 53 50 46 43 40 40 40 41 37 33 28 28 42 53 54 57 59
76 64 57 65 71 71 65 62 66 63 68 67 62 60 57 54 60 79 85 82 76 70 65 58 57 54 52 51 47 44 43 43 44 45 42 40 37 43 55 59 62 65 64
82 74 57 54 66 74 74 65 61 61 63 61 57 51 54 52 52 63 77 77 73 72 68 64 61 58 53 49 47 44 42 43 46 48 46 44 43 52 58 58 63 67 68
73 80 59 56 66 61 56 68 66 65 70 72 81 70 64 55 49 57 62 69 70 70 69 65 64 60 55 48 45 43 41 43 48 50 49 46 46 51 55 59 65 68 67
56 77 77 62 68 66 59 71 74 71 71 72 79 78 78 79 60 50 53 60 63 66 64 68 67 60 55 48 43 42 41 44 49 52 49 47 46 49 55 60 63 66 66
45 61 68 67 61 71 72 79 75 68 58 80 74 72 69 70 71 65 54 54 56 58 59 60 64 66 60 50 44 41 41 45 49 51 50 47 46 48 52 56 60 64 63
43 55 70 87 81 80 71 71 74 57 23 44 75 92 89 43 29 68 66 57 52 52 52 53 54 60 62 58 48 43 41 43 47 49 49 48 47 49 52 55 55 57 57
51 43 54 69 86 93 95 90 72 67 21 356 39 63 88 102 20 34 64 69 58 46 44 51 53 55 57 58 51 43 41 40 44 46 48 50 49 49 51 54 56 56 55
65 52 52 65 77 84 92 87 90 68 57 8 3 24 61 112 125 98 14 67 75 62 49 49 50 53 61 61 54 46 44 40 41 43 46 49 50 51 52 53 55 55 55
81 74 57 57 68 80 90 81 74 63 46 41 26 15 19 20 50 120 137 80 56 70 73 62 62 55 64 65 58 48 47 43 43 42 45 47 48 50 53 55 54 54 56
95 90 87 70 72 77 72 74 88 95 68 43 28 23 35 32 18 50 82 123 122 107 90 73 68 65 71 71 59 55 51 49 47 45 44 45 45 44 45 47 48 50 52
120 120 95 84 77 79 77 63 56 69 89 76 54 35 27 18 39 41 56 45 99 155 97 77 77 79 80 81 65 67 59 54 51 48 46 44 42 40 38 38 40 42 40
143 137 117 101 84 75 79 64 44 40 50 68 70 72 42 24 32 45 62 63 30 42 73 88 62 83 87 86 73 83 79 65 59 51 48 44 39 37 37 35 36 35 31
137 125 123 115 105 86 73 72 64 50 47 53 50 59 62 51 33 27 32 60 93 55 2 64 57 79 103 102 82 90 114 85 68 48 41 39 34 31 32 32 31 31 28
122 124 130 128 124 119 97 75 46 50 78 79 67 55 41 39 37 28 23 22 45 88 67 1 81 180 96 92 101 69 140 119 92 62 21 20 18 14 18 21 21 21 20
137 146 132 131 133 130 124 122 103 36 57 79 78 84 68 49 45 28 25 28 30 53 59 343 20 40 75 55 65 338 239 196 206 211 269 322 339 338 343 352 359 2 2
159 157 137 116 104 111 125 123 128 121 76 64 62 85 97 84 62 38 33 30 32 49 80 10 350 6 15 9 48 321 316 275 240 241 243 257 272 278 286 290 313 328 336
160 149 128 124 122 107 99 119 148 154 135 117 93 87 81 76 68 46 53 35 13 38 60 76 337 336 333 351 27 336 323 317 302 278 250 249 254 261 267 266 279 292 304
151 158 141 130 119 96 68 52 71 101 121 111 99 100 83 77 62 32 45 25 28 33 28 35 338 325 312 320 48 333 332 317 307 302 282 262 254 261 262 265 268 275 281
94 102 113 107 94 93 57 47 9 19 92 91 88 100 101 92 80 65 60 31 34 38 22 15 337 343 334 347 329 312 323 314 308 320 322 301 275 268 260 259 262 268 271
117 92 104 109 100 79 70 64 29 0 43 83 95 93 115 109 95 83 76 67 77 85 19 14 351 344 328 333 332 335 327 336 320 322 337 300 297 281 270 255 259 262 265
140 137 127 124 120 103 93 63 12 328 33 88 94 97 87 94 115 158 216 276 309 261 206 177 240 285 304 320 337 341 335 320 290 291 336 300 298 295 292 290 285 276 270
162 168 167 151 137 135 124 86 341 285 226 160 131 118 98 69 32 32 45 47 326 291 245 209 216 248 286 328 339 318 300 312 303 311 349 292 302 301 301 298 300 298 290
161 168 168 157 151 158 161 158 141 256 249 147 87 66 84 80 33 28 27 4 339 329 323 287 262 272 291 312 340 9 344 346 321 310 325 312 306 310 301 303 308 304 297
167 165 157 160 161 156 166 164 165 173 256 81 99 82 68 69 41 33 35 24 1 332 335 331 326 316 321 319 320 317 272 319 319 310 330 347 329 343 320 306 330 327 315
Height
1552 1552 1553 1552 1552 1552 1552 1552 1552 1552 1552 1552 1552 1552 1552 1552 1552 1552 1552 1552 1551 1551 1550 1549 1548 1547 1547 1547 1546 1546 1545 1544 1542 1542 1541 1540 1539 1538 1539 1540 1541 1541 1542
1554 1554 1554 1554 1554 1553 1553 1553 1553 1553 1553 1553 1553 1553 1553 1553 1553 1553 1553 1553 1552 1552 1551 1550 1549 1548 1548 1548 1547 1546 1545 1543 1541 1540 1539 1538 1535 1533 1534 1537 1539 1540 1541
1555 1555 1555 1555 1555 1555 1555 1555 1555 1554 1554 1554 1554 1554 1554 1554 1555 1555 1554 1554 1553 1553 1552 1551 1551 1550 1549 1548 1547 1546 1545 1542 1541 1539 1539 1536 1532 1529 1531 1535 1537 1539 1540
1556 1556 1556 1556 1557 1557 1556 1556 1556 1556 1556 1556 1556 1556 1556 1556 1556 1556 1556 1555 1555 1554 1554 1553 1552 1551 1550 1549 1548 1547 1545 1544 1542 1540 1539 1537 1534 1531 1532 1535 1537 1539 1540
1557 1557 1558 1558 1558 1558 1558 1557 1557 1557 1557 1557 1557 1557 1558 1558 1558 1558 1558 1557 1557 1556 1555 1555 1554 1553 1552 1550 1549 1548 1546 1544 1543 1542 1541 1539 1537 1536 1536 1537 1538 1539 1540
1558 1559 1559 1559 1559 1559 1559 1559 1559 1559 1559 1559 1559 1559 1560 1560 1560 1559 1559 1559 1559 1558 1557 1556 1555 1554 1553 1552 1550 1549 1547 1546 1544 1544 1542 1541 1540 1539 1539 1539 1539 1540 1540
1559 1560 1560 1560 1560 1560 1560 1560 1560 1560 1560 1561 1561 1561 1561 1562 1561 1561 1561 1561 1560 1560 1559 1557 1556 1555 1554 1553 1551 1550 1549 1547 1546 1545 1545 1544 1543 1542 1541 1541 1541 1541 1541
1560 1560 1561 1561 1561 1561 1561 1561 1561 1562 1562 1562 1562 1562 1563 1564 1563 1563 1563 1562 1561 1561 1560 1559 1557 1556 1555 1554 1553 1552 1550 1549 1549 1547 1547 1545 1544 1543 1543 1542 1542 1542 1542
1560 1561 1561 1562 1562 1562 1562 1562 1562 1563 1563 1563 1563 1563 1563 1564 1564 1565 1564 1564 1563 1562 1561 1560 1559 1558 1556 1555 1554 1553 1552 1551 1550 1549 1548 1547 1546 1545 1545 1544 1544 1544 1543
1561 1561 1562 1562 1563 1563 1563 1563 1563 1563 1564 1564 1564 1564 1565 1564 1565 1565 1565 1565 1564 1563 1562 1561 1560 1559 1557 1556 1555 1554 1553 1552 1552 1551 1549 1549 1548 1547 1546 1546 1545 1545 1544
1562 1562 1563 1563 1563 1564 1564 1564 1564 1564 1564 1564 1564 1565 1564 1565 1565 1565 1565 1565 1564 1564 1563 1562 1561 1560 1558 1557 1556 1556 1554 1553 1552 1552 1551 1550 1549 1548 1547 1547 1546 1546 1545
1563 1563 1563 1564 1564 1564 1564 1565 1565 1565 1565 1565 1565 1565 1565 1565 1565 1565 1565 1565 1565 1564 1564 1563 1562 1561 1559 1558 1557 1556 1555 1554 1553 1552 1551 1551 1550 1549 1548 1547 1547 1546 1546
1563 1563 1564 1564 1564 1565 1565 1565 1565 1565 1565 1565 1565 1565 1565 1565 1565 1565 1565 1565 1565 1565 1564 1563 1562 1561 1560 1559 1558 1557 1556 1555 1554 1553 1552 1551 1550 1549 1548 1548 1547 1546 1546
1564 1564 1564 1565 1565 1565 1565 1565 1565 1565 1565 1565 1565 1565 1565 1565 1565 1565 1565 1565 1565 1565 1564 1564 1563 1562 1561 1560 1559 1558 1557 1556 1555 1554 1552 1551 1550 1549 1548 1548 1547 1546 1545
1564 1565 1565 1565 1565 1565 1565 1565 1565 1565 1566 1566 1566 1566 1566 1565 1565 1565 1565 1565 1566 1565 1565 1564 1563 1562 1561 1560 1559 1558 1557 1556 1555 1554 1552 1551 1550 1549 1548 1547 1546 1546 1545
1564 1565 1565 1565 1566 1566 1566 1566 1566 1566 1566 1566 1566 1566 1566 1565 1565 1565 1565 1565 1565 1565 1564 1564 1563 1562 1561 1560 1559 1558 1557 1556 1555 1553 1552 1551 1549 1548 1547 1547 1546 1545 1544
1564 1565 1565 1566 1566 1566 1566 1566 1566 1566 1566 1566 1566 1566 1566 1565 1565 1565 1565 1565 1564 1564 1564 1564 1563 1562 1561 1560 1559 1558 1556 1555 1554 1553 1552 1550 1549 1548 1547 1546 1545 1544 1543
1564 1565 1565 1566 1566 1566 1566 1566 1566 1566 1566 1566 1566 1566 1565 1565 1565 1565 1564 1564 1564 1564 1564 1563 1563 1562 1561 1560 1558 1557 1556 1555 1553 1552 1551 1550 1548 1547 1546 1545 1544 1543 1542
1563 1564 1565 1565 1565 1565 1566 1566 1566 1566 1566 1566 1566 1565 1565 1565 1565 1564 1564 1564 1564 1563 1563 1562 1562 1561 1560 1559 1558 1557 1555 1554 1553 1551 1550 1549 1548 1546 1545 1544 1542 1541 1540
1562 1563 1563 1564 1564 1565 1565 1565 1565 1565 1565 1565 1565 1565 1565 1565 1564 1564 1563 1563 1563 1562 1562 1561 1561 1560 1559 1558 1557 1555 1554 1553 1551 1550 1549 1548 1546 1545 1543 1542 1541 1539 1538
1561 1562 1562 1563 1563 1564 1564 1564 1564 1564 1565 1565 1565 1565 1564 1564 1564 1563 1563 1562 1562 1561 1561 1560 1560 1559 1558 1557 1555 1554 1552 1551 1550 1549 1547 1546 1544 1543 1541 1540 1539 1537 1535
1559 1560 1561 1561 1562 1562 1562 1563 1563 1563 1564 1564 1563 1563 1563 1563 1563 1563 1562 1562 1561 1560 1560 1559 1558 1558 1557 1555 1554 1553 1551 1549 1547 1547 1545 1544 1542 1540 1539 1537 1536 1534 1533
1557 1558 1559 1559 1560 1560 1561 1562 1562 1562 1562 1562 1562 1562 1562 1562 1562 1561 1561 1560 1560 1559 1559 1558 1557 1556 1555 1554 1552 1551 1549 1548 1546 1545 1543 1540 1539 1537 1536 1535 1533 1531 1530
1555 1556 1557 1557 1558 1559 1559 1560 1560 1561 1561 1561 1561 1561 1561 1561 1560 1559 1559 1559 1558 1558 1557 1556 1555 1554 1553 1552 1550 1549 1547 1545 1544 1542 1540 1538 1536 1535 1533 1532 1530 1528 1527
1553 1554 1555 1555 1556 1557 1558 1558 1558 1559 1559 1559 1559 1559 1559 1559 1559 1558 1557 1557 1556 1556 1555 1554 1554 1552 1551 1550 1548 1547 1544 1542 1540 1539 1538 1536 1533 1531 1530 1528 1527 1525 1523
1550 1551 1552 1553 1554 1555 1555 1556 1556 1556 1557 1557 1557 1557 1557 1557 1557 1556 1555 1554 1554 1553 1553 1552 1551 1550 1549 1547 1546 1544 1542 1540 1538 1536 1535 1534 1531 1529 1526 1525 1524 1522 1519